Location: Villingen
(48.0639°N, 8.4609°E)
Time: 18:52:42
(UTC+01:00)

ISS - Pass Details

Date: 17 November 2017
Orbit: 402 x 407 km, 51.6° (Epoch: 19 November)

Event Time Altitude Azimuth Distance (km) Brightness Sun altitude
Exits shadow 06:21:07 11° 235° (SW) 1,381 -1.5 -12.4°
Maximum altitude 06:21:38 12° 226° (SW) 1,362 -1.5 -12.3°
Drops below altitude 10° 06:22:47 10° 205° (SSW) 1,448 -1.1 -12.1°
Sets 06:25:59 0° 170° (S) 2,301 0.4 -11.6°
